Regional Weather Roundup
Issued by NWS San Angelo, TX

Home | Current Version | Previous Version | Text Only | Print | Product List | Glossary On
Versions: 1 2 3 4 5 6 7 8 9 10 11 12 13 14 15 16 17 18 19 20 21 22 23 24 25 26 27 28 29 30 31 32 33 34 35 36 37 38 39 40 41 42 43 44 45 46 47 48 49 50
000
ASUS44 KSJT 011410
RWRSJT
WEST CENTRAL TEXAS REGIONAL WEATHER ROUNDUP
NATIONAL WEATHER SERVICE SAN ANGELO TX
900 AM CDT MON SEP 01 2014

NOTE: "FAIR" INDICATES FEW OR NO CLOUDS BELOW 12,000 FEET WITH NO
SIGNIFICANT WEATHER AND/OR OBSTRUCTIONS TO VISIBILITY.

TXZ049-054-064>066-071>073-076>078-098-099-113-114-127-128-139-140-
154-155-168>170-011500
...LOCATIONS ACROSS WEST CENTRAL TEXAS...

CITY           SKY/WX    TMP DP  RH WIND       PRES   REMARKS
SAN ANGELO     SUNNY     79  69  71 S20G26    29.93R
ABILENE        MOSUNNY   79  69  71 S16G25    29.91S
DYESS AFB      SUNNY     79  70  73 S18G24    29.90R
JUNCTION       SUNNY     77  69  76 S7        29.97R
SWEETWATER     SUNNY     78  69  73 S25       29.94S
BROWNWOOD      SUNNY     77  68  73 S14G20    29.94F
COLEMAN        SUNNY     78  67  69 S15       29.94F
SONORA         SUNNY     77  68  73 S13       30.01S
OZONA          FAIR      77  68  73 S14G23    29.99R
BRADY          SUNNY     77  68  73 S14       29.95S
$$

TEXAS PANHANDLE/OKLAHOMA PANHANDLE

CITY           SKY/WX    TMP DP  RH WIND       PRES   REMARKS
AMARILLO       SUNNY     69  58  67 N9        29.95R
BORGER         SUNNY     68  57  68 N9        29.93R
CANADIAN       SUNNY     70  65  84 N9        29.88R
DALHART        SUNNY     67  54  63 N17       30.00R
DUMAS          SUNNY     64  56  75 N15       29.96S
GUYMON         NOT AVBL
HEREFORD       SUNNY     69  58  70 N3        29.97R
PAMPA          SUNNY     68  58  71 N9        29.93R
PERRYTON       PTSUNNY   66  61  82 N15       29.90R
$$

SOUTHERN PANHANDLE/SOUTH PLAINS/ROLLING PLAINS

CITY           SKY/WX    TMP DP  RH WIND       PRES   REMARKS
LUBBOCK        SUNNY     78  62  57 SW17      29.92R
SNYDER         SUNNY     77  69  76 S17G23    29.93R
CHILDRESS      SUNNY     81  67  62 E3        29.86R
SEMINOLE       SUNNY     78  62  58 S13       29.95S
$$

PERMIAN BASIN

CITY           SKY/WX    TMP DP  RH WIND       PRES   REMARKS
MIDLAND        SUNNY     79  64  60 S16G23    29.93S
ODESSA         SUNNY     79  63  57 S17       29.94S
WINK           SUNNY     80  63  55 S16       29.91R
$$

FAR WEST/SOUTHWEST MOUNTAINS/TRANS PECOS

CITY           SKY/WX    TMP DP  RH WIND       PRES   REMARKS
ALPINE         SUNNY     78  58  49 CALM      30.13R
DRYDEN           N/A     83  69  62 SE14      29.94
EL PASO        MOSUNNY   75  47  36 E3        30.01R
FORT STOCKTON  SUNNY     79  62  56 S9        29.95R
GUADALUPE PASS SUNNY     71  48  43 SW13      30.13R
MARFA          SUNNY     72  59  64 NE3       30.13R
PECOS          SUNNY     76  60  58 CALM      29.91S
$$

DALLAS/FORT WORTH METROPLEX

CITY           SKY/WX    TMP DP  RH WIND       PRES   REMARKS
DFW AIRPORT    PTSUNNY   81  72  74 S22       29.91S
FTW MEACHAM    MOSUNNY   82  72  71 S14G21    29.91R
DAL-EXECUTIVE  PTSUNNY   81  72  74 S12G21    29.92S
GRAND PRAIRIE  PTSUNNY   81  72  74 MISG      29.93S
ADDISON        PTSUNNY   81  72  74 S12G21    29.93R
MESQUITE       NOT AVBL
LANCASTER      CLOUDY    79  72  78 S8        29.94S
$$

NORTH CENTRAL TEXAS

CITY           SKY/WX    TMP DP  RH WIND       PRES   REMARKS
SHRMAN/DENISON MOSUNNY   80  71  74 S16G22    29.93S
GAINESVILLE    MOSUNNY   78  72  82 S16G23    29.92S
BRIDGEPORT     SUNNY     80  68  67 S15       29.92S
DENTON         PTSUNNY   81  72  74 S16G22    29.92R
WAXAHACHIE     CLOUDY    79  71  77 S13       29.94S
GRANBURY       SUNNY     82  71  69 S14G21    29.92S
$$

WESTERN NORTH TEXAS

CITY           SKY/WX    TMP DP  RH WIND       PRES   REMARKS
WICHITA FALLS  SUNNY     81  70  69 S20       29.84S
VERNON         SUNNY     82  69  64 S15       29.84S
BRECKENRIDGE   SUNNY     82  68  63 S16       29.91R HAZE
COMANCHE         N/A     78  69  73 S16G23    29.94S
$$

CENTRAL AND SOUTH CENTRAL TEXAS

CITY           SKY/WX    TMP DP  RH WIND       PRES   REMARKS
AUSTIN/BERGSTM PTSUNNY   82  75  79 S10       29.95R
WACO           CLOUDY    80  74  81 S16       29.93S
HILLSBORO      PTSUNNY   80  73  78 S15       29.94S
TEMPLE         CLOUDY    81  72  74 S16       29.94S
KILLEEN-GRAY   PTSUNNY   81  73  78 S21G26    29.94F
FORT HOOD      PTSUNNY   82  73  74 SE15      29.94S
GEORGETOWN     CLOUDY    81  75  83 S13       29.97S
LAGO VISTA     CLOUDY    78  73  83 S7        29.98S
SAN MARCOS     PTSUNNY   81  72  74 S10       29.97S
NEW BRAUNFELS  PTSUNNY   80  75  84 S9        29.94S
RANDOLPH AFB   MOSUNNY   79  74  83 S10       29.96S
SAN ANTONIO    PTSUNNY   81  74  79 S12       29.96R
STINSON        CLOUDY    81  75  82 SE8       29.93S
PLEASANTON     NOT AVBL
LA GRANGE      CLOUDY    82  79  91 SE6       29.94S FOG
GIDDINGS       CLOUDY    80  75  84 S9        30.00S
$$

EAST TEXAS

CITY           SKY/WX    TMP DP  RH WIND       PRES   REMARKS
PARIS          CLOUDY    79  68  69 S15G21    29.96S
CLARKSVILLE    NOT AVBL
TYLER          CLOUDY    80  73  79 S10       29.96S
LONGVIEW       PTSUNNY   82  74  76 S10       29.97S
PALESTINE      CLOUDY    79  75  88 S9        29.98S
NACOGDOCHES    CLOUDY    81  75  83 S9        29.99S
$$

TEXAS HILL COUNTRY AND EDWARDS PLATEAU

CITY           SKY/WX    TMP DP  RH WIND       PRES   REMARKS
LLANO          SUNNY     81  70  69 S12       29.98S
HORSESHOE BAY  PTSUNNY   79  71  77 S7        29.96S
KERRVILLE      PTSUNNY   76  72  85 S12       29.98F
FREDERICKSBRG  CLOUDY    76  68  76 S10       29.98S
ROCKSPRINGS    MOSUNNY   75  70  83 SE13      30.01S
HONDO          PTSUNNY   80  74  81 SE10      29.97S
UVALDE         PTSUNNY   79  74  86 SE8       29.95S
DEL RIO        MOSUNNY   80  71  74 SE14      29.91S
$$

SOUTHEAST TEXAS

CITY           SKY/WX    TMP DP  RH WIND       PRES   REMARKS
COLLEGE STN    CLOUDY    78  75  90 SE7       29.96F
CALDWELL       CLOUDY    77  77 100 S7        29.99S FOG
CROCKETT       NOT AVBL
BRENHAM        CLOUDY    78  77  96 SE3       29.97S
HUNTSVILLE     PTSUNNY   81  75  82 VRB5      29.98S
CONROE         CLOUDY    76  76 100 CALM      29.98S FOG
HOUSTON BUSH   MOSUNNY   81  79  94 CALM      29.96S
HOUSTON HOBBY  MOSUNNY   83  77  82 SE5       29.96R
PERLAND        MOSUNNY   83  77  82 SE7       29.97R
WHARTON        SUNNY     80  77  91 SE6       29.96S
$$

THE UPPER TEXAS COAST

CITY           SKY/WX    TMP DP  RH WIND       PRES   REMARKS
ORANGE         SUNNY     83  81  93 E7        29.99S
PORT ARTHUR    MOSUNNY   83  78  85 SE6       29.97S
GALVESTON      MOSUNNY   85  78  80 SE10      29.97R
ANGLETON       SUNNY     83  78  85 SE5       29.95S
BAY CITY       SUNNY     84  84 100 SE6       29.95S
$$

TEXAS COASTAL BEND, RIO GRANDE PLAINS DEEP SOUTH TEXAS

CITY           SKY/WX    TMP DP  RH WIND       PRES   REMARKS
VICTORIA       SUNNY     83  80  91 SE7       29.94R
BEEVILLE       PTSUNNY   81  80  96 SE7       29.93S
ROCKPORT       SUNNY     86  78  77 SE9       29.93R
PORT ARANSAS   CLOUDY    84  76  77 S8        29.92R
PORT LAVACA    SUNNY     83  78  84 SE8       29.93S
CORPUS CHRISTI MOSUNNY   83  80  91 SE8       29.92S
KINGSVILLE NAS MOSUNNY   81  80  97 SE10      29.92R
COTULLA        SUNNY     82  74  76 SE12      29.92R
LAREDO         SUNNY     83  74  74 SE14      29.93R
BROWNSVILLE    MOSUNNY   84  79  85 SE5       29.91R
PORT ISABEL    SUNNY     86  78  77 SE9       29.91R
HEBBRONVILLE   PTSUNNY   80  75  84 SE12      29.93S
MCALLEN        MOSUNNY   81  78  91 SE8       29.91R
WESLACO        NOT AVBL
FALFURRIAS     MOSUNNY   70  66  87 SE6       29.91S
EDINBURG       MOSUNNY   83  79  87 SE7       29.91R
$$


USA.gov is the U.S. government's official web portal to all federal, state and local government web resources and services.